Wind_Speed
10 10 10 10 12 12 14 17 18 20 20 21 23 24 25 26 26 27 27 28 29 28 28 28 29 29 30 30 31 31 32 32 32 33 33 33 34 34 34 34 33 33 33 33
12 10 9 9 10 11 12 14 15 17 19 19 21 22 24 25 26 26 27 27 27 28 28 28 29 29 30 30 31 31 32 32 33 33 34 35 35 35 35 35 35 35 35 35
11 11 10 9 9 9 10 12 13 14 16 18 19 20 22 24 25 26 26 27 27 28 28 28 29 30 31 31 32 32 33 33 34 34 35 35 36 37 37 37 36 36 36 36
10 9 9 9 8 8 8 10 10 11 13 16 17 19 20 22 23 25 25 26 26 27 28 28 30 31 32 32 33 34 34 34 34 35 35 36 36 36 37 37 37 37 37 36
9 9 8 7 6 6 6 7 8 9 11 13 16 17 19 20 22 23 24 25 25 26 27 28 29 31 32 32 33 34 35 35 35 35 36 37 38 38 38 37 38 38 38 36
9 8 7 6 5 4 4 6 7 8 10 12 14 16 17 19 20 22 23 25 25 26 28 29 29 30 31 33 34 34 35 36 36 36 36 37 37 38 38 38 38 38 38 38
7 6 5 4 3 3 3 4 6 7 8 10 12 14 16 17 19 21 22 24 25 26 27 28 29 31 32 33 34 35 35 36 36 37 37 37 37 37 37 38 38 38 38 37
6 5 4 3 2 1 2 3 5 6 7 8 10 13 15 17 19 20 22 23 24 26 27 28 30 31 32 33 34 35 36 37 37 38 38 38 37 37 37 37 38 39 38 38
4 4 3 2 1 1 1 3 4 6 7 8 10 11 13 15 17 19 21 23 24 25 26 28 29 30 31 32 33 34 35 36 37 38 38 38 38 38 38 38 38 38 39 39
5 4 3 2 2 3 3 4 6 7 8 9 10 11 12 14 16 18 19 21 22 24 26 28 29 29 30 31 32 33 34 35 36 37 38 39 39 39 39 39 39 39 39 39
7 6 5 5 4 5 5 6 8 9 10 11 11 11 12 14 16 17 18 19 21 22 24 26 28 29 29 30 31 31 32 33 35 36 37 38 39 39 40 40 40 40 40 40
8 7 6 6 6 6 7 8 9 10 11 12 12 12 13 15 16 17 18 19 21 22 24 25 26 28 29 30 31 31 32 33 34 35 36 37 38 39 40 40 41 41 42 42
10 9 8 8 8 9 9 10 10 11 12 12 13 13 14 15 17 18 19 20 22 23 24 25 26 28 29 30 31 32 32 33 34 35 36 37 38 39 40 41 42 43 43 44
11 11 11 11 10 11 11 12 12 12 12 13 14 15 16 17 17 19 20 21 23 23 24 25 27 28 29 29 30 31 32 33 34 35 36 37 38 39 40 41 42 42 42 43
14 14 13 13 13 13 13 13 14 14 15 15 16 17 18 19 19 20 21 22 23 24 25 25 26 27 28 29 30 31 32 33 34 36 36 37 37 38 39 40 41 42 43 43
17 17 16 16 16 15 15 15 16 17 17 17 17 18 19 20 20 21 21 23 24 25 26 26 26 27 28 29 30 31 32 33 34 35 37 37 37 38 39 40 41 42 43 44
20 20 20 19 19 19 18 18 19 19 19 20 19 20 21 21 22 23 23 24 24 25 26 27 28 29 30 30 31 32 33 34 34 35 36 37 38 39 40 40 41 42 43 44
23 22 23 23 22 23 22 21 22 22 21 22 22 22 23 24 24 25 26 26 27 27 28 29 30 30 31 31 32 33 34 34 35 36 38 39 39 40 41 41 42 43 43 43
26 26 25 25 25 25 24 24 24 24 24 24 25 25 25 25 26 26 26 27 27 28 29 30 31 32 32 33 34 34 36 37 37 38 38 39 40 41 42 43 43 43 43 43
29 29 29 29 29 29 27 27 27 28 27 27 27 27 27 27 27 27 28 29 30 31 32 32 33 34 34 35 36 36 37 38 39 39 40 41 42 43 43 43 43 43 44 43
32 32 32 32 33 32 31 30 30 30 30 30 29 29 29 29 30 30 30 31 32 33 34 34 35 35 36 37 38 38 39 40 41 41 42 43 44 44 44 44 44 43 43 43
35 35 34 35 35 34 33 33 32 32 32 32 32 32 32 32 32 33 33 34 34 35 36 37 37 37 38 39 40 40 41 42 43 44 44 44 45 45 44 44 44 44 43 43
37 37 37 37 37 36 36 35 35 35 35 34 34 34 34 34 35 35 35 35 36 37 38 39 39 40 41 41 42 42 43 44 45 45 45 45 44 44 44 44 44 44 44 43
39 39 39 39 38 38 37 37 37 37 37 37 37 37 37 37 37 38 38 38 38 39 40 41 41 42 42 43 43 44 45 45 45 45 45 45 44 44 43 43 43 43 43 43
41 40 41 41 40 40 39 38 38 39 39 39 39 39 39 39 39 39 39 40 40 41 42 42 43 43 43 44 44 45 45 45 44 44 44 44 44 44 43 43 43 43 43 43
40 42 43 42 42 43 41 40 40 40 40 40 40 40 41 41 41 41 41 41 41 42 42 43 43 43 44 44 44 45 45 44 44 43 43 44 43 43 43 43 43 43 43 43
Wind_Direction
102 123 142 160 169 176 182 189 191 196 199 203 206 209 210 212 213 214 217 218 220 223 228 230 232 236 238 240 242 245 247 250 253 254 257 259 260 262 264 265 268 269 271 272
96 111 124 141 154 167 179 187 192 198 202 204 205 208 211 212 214 216 218 219 222 225 229 233 234 236 239 241 244 247 250 252 254 256 258 260 262 263 264 265 267 269 271 273
93 96 106 127 145 161 175 188 195 202 204 207 208 208 212 214 216 217 220 222 225 228 231 234 237 238 242 245 247 249 252 255 257 258 259 261 263 264 265 266 268 269 272 273
84 87 96 112 134 154 172 185 195 204 210 211 211 212 215 216 218 220 223 226 228 230 234 238 241 243 245 247 250 251 253 256 257 258 260 261 262 264 265 267 269 269 271 272
75 82 91 102 120 143 166 185 195 203 212 217 219 220 219 220 222 225 228 231 233 235 238 242 244 247 248 249 251 252 254 256 258 259 261 262 263 264 266 267 268 269 271 272
69 80 85 88 104 127 160 185 199 208 216 222 225 226 226 226 228 231 233 235 237 240 242 245 247 248 250 251 252 253 255 257 258 260 261 262 264 265 266 267 269 270 272 272
61 70 73 79 94 123 161 186 197 208 220 227 229 230 229 229 231 234 237 239 242 243 245 248 250 251 253 254 254 255 256 258 259 260 261 262 264 266 267 268 269 271 272 273
50 53 56 61 71 118 180 204 216 219 229 235 236 234 232 234 237 240 242 243 245 247 249 251 252 253 254 255 256 257 258 259 260 261 262 263 264 266 268 269 270 271 272 273
25 29 27 31 15 272 234 238 244 244 243 244 244 242 239 239 240 242 245 246 248 249 251 252 253 255 256 258 259 260 261 261 261 262 263 264 265 266 268 270 271 271 272 273
359 348 346 334 307 279 265 260 259 260 260 257 255 252 247 244 247 249 250 251 251 252 254 255 257 258 260 261 262 263 263 262 263 263 264 265 266 266 268 269 270 271 272 273
346 333 317 307 298 290 283 275 270 267 268 267 266 261 256 252 252 253 255 256 257 258 259 260 260 261 262 263 263 264 265 265 265 265 265 266 266 267 268 270 270 270 271 272
331 324 313 305 298 290 287 284 280 276 273 271 271 270 267 262 259 259 260 261 261 262 262 262 263 263 263 264 264 265 267 268 268 268 268 269 269 269 269 270 270 271 272 272
325 319 311 304 298 291 285 283 283 283 280 276 275 277 274 271 268 266 264 263 264 264 265 265 266 266 266 266 266 267 268 270 271 271 271 271 271 271 271 271 272 272 273 273
318 314 310 305 300 294 289 285 284 283 281 279 279 278 278 277 275 271 268 266 266 266 267 267 268 269 269 269 269 270 270 271 272 273 274 274 274 273 273 273 274 274 274 274
308 306 304 301 297 294 291 287 286 285 283 281 280 279 279 280 278 275 272 271 270 269 270 270 270 270 270 271 272 273 273 274 275 276 276 276 276 276 276 276 276 276 275 275
303 302 300 298 296 293 290 289 287 288 288 287 285 284 283 282 282 280 277 275 273 273 273 273 273 272 272 273 274 275 276 276 277 278 277 277 277 277 278 278 278 278 277 277
300 299 296 295 294 293 291 290 289 289 288 287 286 285 283 283 283 282 280 278 277 277 276 275 275 275 275 275 276 277 278 278 279 280 279 278 278 279 279 280 279 279 279 278
299 298 296 294 292 291 294 290 289 289 287 286 286 285 284 284 283 282 280 280 279 279 278 277 277 278 277 277 278 279 280 280 281 281 281 280 280 280 280 281 281 280 280 279
294 294 294 293 292 291 291 291 290 288 286 286 286 285 284 283 283 282 281 281 280 281 280 280 279 279 279 278 279 280 281 282 282 283 283 282 281 281 282 282 281 281 280 280
290 290 290 290 290 290 291 290 288 287 286 286 285 284 283 283 282 282 281 281 281 282 282 281 281 280 280 280 280 281 282 283 283 283 283 283 283 282 283 282 281 281 280 280
289 289 288 288 288 288 290 289 288 286 287 285 284 283 283 282 282 282 281 281 281 282 282 283 283 282 282 282 282 283 283 283 284 283 283 283 284 283 283 282 282 281 281 280
287 287 287 288 288 289 288 287 286 285 284 284 283 282 282 282 281 281 281 282 282 282 282 282 283 283 283 284 284 284 284 284 285 284 283 284 284 283 282 282 281 281 281 281
284 285 285 286 287 287 286 285 285 283 282 281 281 281 281 280 280 280 280 281 281 281 282 282 283 284 284 285 285 285 285 285 285 285 284 284 284 284 283 282 281 281 281 281
283 283 284 285 285 284 283 283 282 281 281 280 280 280 280 279 279 279 280 281 281 282 282 283 283 284 285 286 286 286 286 286 286 285 284 284 283 283 283 282 282 281 281 281
281 282 282 283 284 282 281 280 280 280 280 279 279 279 279 279 279 280 281 282 282 283 284 284 285 285 286 286 287 287 287 286 286 285 284 283 283 283 282 282 282 281 281 281
280 280 280 280 280 279 279 278 278 278 279 279 279 280 280 280 281 282 283 283 283 284 285 285 286 286 287 287 288 287 287 286 286 284 284 284 283 282 281 281 281 281 281 281
Height
5693 5695 5696 5698 5701 5705 5708 5711 5714 5718 5722 5726 5730 5735 5739 5743 5747 5751 5755 5759 5763 5767 5770 5773 5775 5778 5780 5783 5785 5787 5789 5791 5792 5794 5795 5796 5796 5797 5797 5797 5797 5797 5796 5796
5698 5698 5699 5701 5703 5706 5709 5712 5715 5718 5721 5725 5729 5733 5737 5741 5745 5748 5752 5756 5759 5763 5765 5768 5770 5772 5775 5777 5779 5781 5783 5784 5786 5787 5788 5788 5789 5789 5789 5790 5789 5789 5788 5788
5703 5703 5703 5704 5706 5708 5711 5714 5716 5719 5722 5724 5728 5732 5735 5738 5741 5745 5749 5752 5755 5758 5761 5763 5765 5767 5769 5771 5773 5775 5776 5777 5778 5779 5780 5781 5781 5781 5781 5781 5781 5780 5780 5779
5706 5706 5707 5708 5709 5710 5712 5714 5717 5719 5722 5724 5728 5730 5733 5736 5739 5742 5745 5748 5751 5753 5756 5758 5760 5761 5763 5765 5766 5768 5769 5770 5771 5772 5773 5773 5773 5773 5773 5773 5772 5772 5771 5771
5710 5710 5710 5710 5711 5712 5714 5715 5717 5719 5721 5724 5726 5729 5732 5733 5736 5739 5742 5744 5747 5749 5750 5752 5754 5755 5757 5758 5760 5761 5762 5762 5763 5764 5765 5765 5765 5765 5765 5764 5764 5763 5762 5762
5713 5713 5713 5713 5713 5714 5715 5716 5717 5719 5720 5723 5725 5727 5729 5731 5734 5736 5738 5740 5742 5744 5745 5747 5748 5749 5750 5751 5752 5753 5754 5755 5755 5756 5756 5756 5757 5756 5756 5756 5755 5755 5754 5753
5716 5716 5715 5715 5715 5716 5716 5717 5718 5718 5719 5721 5723 5724 5727 5728 5730 5732 5734 5735 5737 5738 5740 5741 5742 5742 5743 5744 5745 5745 5746 5746 5747 5747 5747 5748 5748 5748 5747 5747 5746 5746 5745 5744
5717 5717 5717 5716 5716 5716 5716 5717 5719 5719 5719 5720 5721 5722 5724 5725 5726 5727 5729 5730 5731 5732 5734 5734 5735 5736 5736 5737 5737 5737 5738 5738 5739 5739 5739 5739 5739 5739 5738 5738 5737 5737 5736 5735
5718 5718 5718 5717 5717 5717 5716 5717 5718 5718 5718 5718 5719 5720 5721 5721 5722 5723 5724 5725 5726 5726 5727 5728 5728 5728 5729 5729 5729 5729 5730 5730 5730 5730 5730 5730 5730 5730 5729 5728 5728 5727 5726 5725
5719 5719 5718 5717 5717 5717 5717 5716 5716 5716 5716 5716 5716 5717 5718 5718 5718 5719 5719 5720 5720 5721 5721 5721 5721 5721 5721 5722 5721 5721 5721 5721 5721 5721 5721 5721 5720 5720 5720 5719 5718 5717 5716 5715
5719 5719 5718 5717 5716 5715 5715 5715 5714 5714 5713 5713 5713 5716 5714 5714 5714 5714 5715 5714 5714 5714 5714 5714 5714 5714 5714 5714 5714 5713 5713 5712 5712 5712 5711 5711 5711 5710 5709 5709 5708 5707 5706 5705
5718 5718 5716 5716 5715 5714 5713 5713 5712 5712 5711 5710 5710 5714 5710 5709 5709 5709 5709 5709 5709 5708 5708 5707 5707 5707 5707 5706 5706 5706 5705 5704 5704 5703 5702 5702 5701 5700 5699 5698 5698 5697 5696 5694
5717 5716 5715 5714 5715 5713 5711 5710 5709 5709 5708 5707 5706 5710 5706 5705 5704 5704 5704 5703 5703 5702 5701 5701 5700 5700 5699 5699 5698 5698 5697 5696 5695 5694 5693 5692 5691 5690 5689 5688 5687 5686 5684 5683
5715 5714 5714 5713 5711 5709 5708 5707 5706 5705 5704 5703 5703 5703 5701 5700 5699 5699 5698 5697 5696 5695 5695 5694 5693 5693 5692 5691 5690 5690 5689 5688 5686 5685 5684 5683 5681 5680 5679 5677 5676 5675 5673 5672
5713 5712 5710 5709 5707 5706 5705 5703 5702 5701 5700 5699 5699 5697 5696 5694 5693 5693 5692 5691 5690 5689 5688 5687 5686 5685 5684 5683 5682 5681 5680 5679 5677 5676 5674 5673 5671 5670 5668 5667 5665 5663 5662 5660
5709 5708 5706 5705 5703 5701 5700 5699 5697 5696 5695 5694 5693 5692 5690 5689 5687 5686 5685 5684 5683 5682 5681 5680 5679 5678 5677 5676 5674 5673 5671 5670 5668 5667 5664 5663 5661 5659 5657 5656 5654 5652 5650 5648
5704 5703 5701 5700 5698 5696 5696 5695 5692 5691 5690 5688 5687 5687 5684 5683 5681 5680 5678 5677 5676 5675 5674 5672 5671 5670 5669 5667 5666 5664 5662 5660 5659 5657 5655 5653 5651 5649 5647 5645 5643 5640 5638 5636
5699 5697 5695 5694 5693 5691 5693 5689 5687 5685 5683 5682 5680 5679 5677 5676 5674 5672 5671 5669 5668 5667 5666 5664 5663 5662 5660 5658 5657 5655 5653 5651 5649 5647 5645 5642 5640 5638 5636 5633 5631 5628 5626 5624
5692 5690 5688 5687 5685 5684 5684 5682 5679 5678 5677 5675 5673 5671 5670 5668 5666 5665 5663 5661 5660 5658 5657 5656 5654 5652 5650 5649 5647 5645 5643 5641 5639 5637 5634 5632 5629 5627 5624 5622 5619 5616 5614 5611
5684 5682 5681 5679 5676 5676 5677 5674 5671 5670 5669 5667 5665 5663 5661 5659 5659 5657 5654 5652 5651 5649 5647 5646 5644 5642 5640 5638 5636 5635 5632 5630 5627 5625 5623 5620 5617 5615 5612 5609 5606 5604 5601 5599
5675 5673 5672 5669 5667 5667 5667 5664 5662 5662 5661 5658 5655 5654 5652 5650 5649 5648 5645 5643 5641 5639 5637 5635 5634 5632 5629 5627 5625 5623 5621 5618 5616 5613 5611 5608 5605 5602 5599 5596 5594 5591 5589 5587
5665 5663 5662 5660 5658 5659 5656 5654 5653 5651 5649 5647 5645 5644 5642 5641 5639 5637 5635 5633 5631 5629 5627 5624 5623 5620 5618 5615 5614 5611 5609 5606 5603 5600 5598 5595 5592 5589 5586 5584 5581 5579 5576 5574
5654 5654 5651 5650 5650 5647 5645 5643 5641 5639 5638 5636 5635 5633 5632 5630 5628 5626 5624 5622 5619 5617 5615 5613 5611 5608 5605 5603 5600 5598 5596 5593 5590 5587 5584 5582 5579 5576 5573 5571 5568 5566 5564 5561
5643 5641 5639 5638 5638 5635 5633 5631 5629 5628 5626 5625 5623 5622 5620 5618 5616 5614 5612 5610 5608 5605 5603 5600 5598 5595 5593 5590 5587 5584 5582 5579 5576 5573 5571 5568 5565 5563 5560 5558 5555 5553 5551 5548
5631 5629 5626 5625 5625 5623 5621 5619 5617 5615 5614 5612 5611 5609 5607 5605 5603 5601 5599 5597 5595 5592 5590 5587 5585 5582 5579 5576 5573 5570 5568 5565 5562 5560 5557 5554 5552 5549 5547 5545 5542 5540 5538 5535
5619 5616 5613 5613 5612 5609 5608 5607 5605 5603 5601 5599 5598 5596 5594 5592 5590 5588 5586 5584 5582 5579 5577 5574 5571 5569 5566 5563 5560 5557 5554 5551 5549 5546 5543 5541 5538 5536 5534 5532 5529 5527 5525 5523